Location: Zilina
(0.0000°N, 18.7333°E)
Time: 00:15:02
(UTC+01:00)

Cosmos 2098 Rocket - Pass Details

Date: 19 February 2019
Orbit: 367 x 1196 km, 82.9° (Epoch: 20 March)

Event Time Altitude Azimuth Distance (km) Brightness Sun altitude
Rises 19:03:28 0° 4° (N) 3,347 6.7 -15.8°
Reaches altitude 10° 19:06:11 10° 9° (N) 2,271 5.7 -16.5°
Maximum altitude 19:11:01 51° 84° (E) 797 3.2 -17.7°
Drops below altitude 10° 19:14:52 10° 161° (SSE) 1,803 5.4 -18.6°
Sets 19:16:49 0° 166° (SSE) 2,591 6.2 -19.1°
